CZ-6A DEB, 56265

Orbit data source: Space-Track

CZ-6A DEB, 56265 is space debris in SSO originally from a launch on Fri, 11 Nov 2022 UTC launched from the Taiyaun Space Center, China (TSC). Debris objects in space refer to the collection of defunct objects orbiting the Earth. Examples of debris include non-operational satellites, rocket bodies, and fragments generated from explosions, collisions, or faulty payload assembly.

Loading next visibility...
Identifier
56265, 2022-151ACH
Orbit
SSO
Country
Flag of CNCN / PRC
Related business
Manufacturer
SAST
Mission
Spacecraft
Bus & Motor
Unknown
Mass
Unknown
Launch date (UTC)
2022-11-11 (4 years ago)
Launch vehicle
Unknown
Launch site
Taiyaun Space Center, China (TSC)
Object type
Payload
Rocket body
Debris
Shape & HBR
Unknown shape, 0.1 m
Radar Cross Section
Medium (>0.1 m² and <1 m²)

Expand to show TLE details & history
Last TLE update: 2 days ago

TLE from 2 days ago
0 CZ-6A DEB
1 56265U 22151ACH 26171.45211980  .00001152  00000-0  59201-3 0  9991
2 56265  98.8243 177.5414 0038708 326.1083  33.7619 14.16929097167818
Epoch: 2026-06-20T10:51Z
TLE epoch observation values (Epoch: 2026-06-20T10:51:03.150Z)
Latitude
-0°
Longitude
106.11173°
Altitude
815.478 km
Speed
7.457 km/s
True Right ascension
11h 50m 09s
True Declination
0° 00' 00"
Sunlit
Object was in daylight at epoch
Visualization orbit readout
Latitude
Unknown
Longitude
Unknown
Altitude
Unknown
Speed
Unknown
Apparent Right ascension
Unknown
Apparent Declination
Unknown
Sunlit
N/A
Visualization observer readout
Local Sidereal Time
21:27:45
Azimuth
Unknown
Elevation
Unknown
Doppler factor
Unknown
Orbital elements
Apogee altitude
860.838 km
Perigee altitude
805.013 km
Semi-major axis
7,211.062 km
Eccentricity
0.00387
Inclination
98.8243°
RAAN
177.5414°
Arg. of periapsis
326.1083°
True anomaly
34.0094°
Mean anomaly
33.7619°
Eccentric anomaly
33.88555°
Mean motion
3.54441 °/min
Orbital period
101.57 mins
BSTAR
0.00059201
Loading maneuver chart data...
Computing Atmospheric mass density...
Loading historical data...
Loading historical data...
Loading historical data...
Loading historical data...
Loading historical data...
Loading historical data...
Loading historical data...

Documentation

Showing up to 5 results
|